Volver al catálogo

COSMOS 249 DEB

ActivoLEO
NORAD 3755·DEBRIS·🇷🇺 Russia

Lanzado Oct 20, 1968 desde Baikonur Cosmodrome

Loading…

Próximos Pases (próximas 24 horas)

TLE

EnvejeciendoSource: Space-Track

Época: Sep 12, 2026, 02:37 UTC

1 03755U 68091AT  26255.10925652  .00000057  00000-0  16450-3 0  9995
2 03755  62.2442 295.2420 0774543 134.9772 231.6735 12.81758579654598

Sigue COSMOS 249 DEB en tiempo real con AllMySat

Download on the App Store